Fairbanks, AK

4:18 AM AKDT on July 29, 2017 (GMT -0800)
Fairbanks International

Weather History for PAFA - March, 2014

Change the Weather History Date:

Thursday, March 20, 2014

  Actual Average Record
Temperature  
Mean Temperature 9 °F 13 °F  
Max Temperature 28 °F 27 °F 55 °F (1998)
Min Temperature -10 °F -1 °F -37 °F (1959)
Degree Days  
Heating Degree Days 56 52  
Month to date heating degree days 1088 1134  
Since 1 July heating degree days 10480 11524  
Cooling Degree Days 0 0  
Month to date cooling degree days 0 0  
Year to date cooling degree days 0 0  
Moisture  
Dew Point -2 °F    
Average Humidity 61    
Maximum Humidity 80    
Minimum Humidity 30    
Precipitation  
Precipitation 0.00 in 0.00 in 0.34 in (1954)
Month to date precipitation 0.21 0.17  
Year to date precipitation 0.83 1.17  
Snow  
Snow 0.00 in 0.10 in 3.60 in (1954)
Month to date snowfall 3.1 3.4  
Since 1 July snowfall 46.0 59.7  
Snow Depth 21.00 in    
Sea Level Pressure  
Sea Level Pressure 30.54 in    
Wind  
Wind Speed 5 mph (NNE)    
Max Wind Speed 14 mph    
Max Gust Speed -    
Visibility 10 miles    
Events      
T = Trace of Precipitation, MM = Missing Value Source: NWS Daily Summary

Daily Weather History Graph

Daily Weather History Graph

Search for Another Location

Airport or City:

Trip Planner

Search our weather history database for the weather conditions in past years. The results will help you decide how hot, cold, wet, or windy it might be!

Date:

Astronomy

Mar. 20, 2014 Rise Set
Actual Time 7:51 AM AKDT 8:08 PM AKDT
Civil Twilight 7:02 AM AKDT 8:57 PM AKDT
Nautical Twilight 6:02 AM AKDT 9:57 PM AKDT
Astronomical Twilight 4:53 AM AKDT 11:07 PM AKDT
Moon 12:59 AM AKDT (3/20) 8:34 AM AKDT (3/20)
Length of Visible Light 13h 55m
Length of Day
12h 16m
Waning Gibbous, 83% of the Moon is Illuminated
Mar 20
Waning Gibbous
Mar 23
Last Quarter
Mar 30
New
Apr 7
First Quarter
Apr 14
Full

Hourly Weather History & Observations

Time (AKDT) Temp. Windchill Dew Point Humidity Pressure Visibility Wind Dir Wind Speed Gust Speed Precip Events Conditions
12:53 AM -2.0 °F -10.1 °F -7.1 °F 79% 30.55 in 10.0 mi East 3.5 mph - N/A   Scattered Clouds
1:53 AM 1.9 °F - -4.0 °F 76% 30.56 in 10.0 mi Calm Calm - N/A   Mostly Cloudy
2:53 AM -4.0 °F - -9.9 °F 76% 30.55 in 10.0 mi Calm Calm - N/A   Scattered Clouds
3:53 AM -6.0 °F - -13.0 °F 72% 30.55 in 10.0 mi Calm Calm - N/A   Scattered Clouds
4:53 AM -5.1 °F -17.6 °F -9.9 °F 80% 30.55 in 10.0 mi NE 5.8 mph - N/A   Scattered Clouds
5:53 AM -7.1 °F -15.9 °F -11.9 °F 79% 30.56 in 10.0 mi WNW 3.5 mph - N/A   Scattered Clouds
6:53 AM -9.0 °F -18.2 °F -16.1 °F 71% 30.57 in 10.0 mi WNW 3.5 mph - N/A   Partly Cloudy
7:53 AM -6.0 °F -14.7 °F -13.0 °F 72% 30.57 in 10.0 mi NW 3.5 mph - N/A   Clear
8:53 AM -7.1 °F -15.9 °F -13.0 °F 75% 30.58 in 10.0 mi North 3.5 mph - N/A   Clear
9:53 AM -2.0 °F -12.2 °F -8.0 °F 76% 30.57 in 10.0 mi NNE 4.6 mph - N/A   Clear
10:53 AM 5.0 °F - -0.0 °F 80% 30.57 in 10.0 mi Calm Calm - N/A   Clear
11:53 AM 12.9 °F 6.9 °F 5.0 °F 71% 30.56 in 10.0 mi NNE 3.5 mph - N/A   Partly Cloudy
12:53 PM 21.9 °F 11.0 °F 6.1 °F 51% 30.55 in 10.0 mi ENE 10.4 mph - N/A   Partly Cloudy
1:53 PM 25.0 °F 14.2 °F 7.0 °F 46% 30.54 in 10.0 mi ENE 11.5 mph - N/A   Partly Cloudy
2:53 PM 27.0 °F 18.0 °F 7.0 °F 43% 30.53 in 10.0 mi East 9.2 mph - N/A   Partly Cloudy
3:53 PM 27.0 °F 18.0 °F 8.1 °F 45% 30.52 in 10.0 mi East 9.2 mph - N/A   Partly Cloudy
4:53 PM 27.0 °F 18.0 °F 7.0 °F 43% 30.52 in 10.0 mi East 9.2 mph - N/A   Partly Cloudy
5:53 PM 24.1 °F 12.5 °F 8.1 °F 51% 30.51 in 10.0 mi NNE 12.7 mph - N/A   Partly Cloudy
6:53 PM 19.9 °F 7.3 °F 7.0 °F 57% 30.51 in 10.0 mi NNE 12.7 mph - N/A   Partly Cloudy
7:53 PM 21.0 °F 8.1 °F 6.1 °F 53% 30.52 in 10.0 mi NNE 13.8 mph - N/A   Partly Cloudy
8:53 PM 17.1 °F 5.8 °F 3.9 °F 56% 30.53 in 10.0 mi North 9.2 mph - N/A   Partly Cloudy
9:53 PM 14.0 °F 2.0 °F 1.0 °F 56% 30.53 in 10.0 mi North 9.2 mph - N/A   Clear
10:53 PM 16.0 °F 3.6 °F 1.9 °F 54% 30.54 in 10.0 mi North 10.4 mph - N/A   Clear
11:53 PM 15.1 °F 1.8 °F 1.9 °F 56% 30.54 in 10.0 mi North 11.5 mph - N/A   Clear